Location: Caltech
(34.1382°N, 118.1253°W)
Time: 01:00:14
(UTC-07:00)

ALOS - Visible Passes

Search period start: 24 March 2017 00:00
Search period end: 03 April 2017 00:00
Orbit: 685 x 686 km, 97.9° (Epoch: 22 March)

Date Brightness Start Highest point End Pass type
(mag) Time Alt. Az. Time Alt. Az. Time Alt. Az.
24 Mar 2.2 19:47:38 10° SSE 19:52:16 69° ENE 19:56:55 10° N visible
25 Mar 3.5 20:25:24 10° S 20:29:50 44° W 20:34:18 10° NNW visible
26 Mar 2.8 19:25:44 10° SE 19:30:03 39° ENE 19:34:23 10° N visible
26 Mar 5.1 21:04:36 10° SW 21:07:35 17° W 21:10:35 10° NW visible
27 Mar 2.4 20:02:50 10° S 20:07:30 79° WSW 20:12:11 10° NNW visible
28 Mar 4.2 20:41:05 10° SSW 20:45:08 29° W 20:49:12 10° NW visible
29 Mar 2.3 19:40:39 10° SSE 19:45:13 58° ENE 19:49:49 10° N visible
29 Mar 5.4 21:21:45 10° WSW 21:22:58 11° W 21:24:10 10° WNW visible
30 Mar 3.1 20:18:12 10° S 20:22:45 52° W 20:27:18 10° NNW visible
31 Mar 4.8 20:57:05 10° SW 21:00:27 20° W 21:03:51 10° NW visible
01 Apr 2.3 19:55:46 10° SSE 20:00:25 88° ENE 20:05:07 10° NNW visible
02 Apr 3.9 20:33:48 10° SSW 20:38:02 34° W 20:42:17 10° NNW visible
